Location: ?????????
(53.2086°N, 54.0693°E)
Time: 13:53:52
(UTC+00:00)

FengYun 1-2 T - Pass Details

Date: 08 December 2019
Orbit: 847 x 880 km, 98.7° (Epoch: 18 January)

Event Time Altitude Azimuth Distance (km) Brightness Sun altitude
Rises 13:59:47 0° 153° (SSE) 3,400 7.2 -15.7°
Reaches altitude 10° 14:02:08 10° 151° (SSE) 2,469 6.5 -16.1°
Maximum altitude 14:07:34 69° 70° (ENE) 911 4.1 -16.9°
Drops below altitude 10° 14:13:04 10° 348° (NNW) 2,495 6.6 -17.7°
Sets 14:15:27 0° 346° (NNW) 3,439 7.4 -18.0°
